Regional Weather Roundup
Issued by NWS Goodland, KS

Home | Current Version | Previous Version | Graphics & Text | Print | Product List | Glossary On
Versions: 1 2 3 4 5 6 7 8 9 10 11 12 13 14 15 16 17 18 19 20 21 22 23 24 25 26 27 28 29 30 31 32 33 34 35 36 37 38 39 40 41 42 43 44 45 46 47 48 49 50
000
ASUS43 KGLD 182208
RWRGLD

GOODLAND FORECAST AREA HOURLY WEATHER ROUNDUP
NATIONAL WEATHER SERVICE GOODLAND KS
400 PM MDT FRI APR 18 2014

...OFFICIAL OBSERVATIONS...

CITY           SKY/WX    TMP DP  RH WIND       PRES   REMARKS
GOODLAND KS    MOSUNNY   76  39  26 S26G33    29.92F
HILL CITY KS   SUNNY     74  41  30 S22G32    29.99F
IMPERIAL NEB   SUNNY     76  38  25 S26G33    29.88F
MCCOOK NEB     MOSUNNY   72  42  34 S23G39    29.93F
AKRON CO       SUNNY     77  25  14 SE13      29.88F
BURLINGTON CO  SUNNY     77  33  20 S18G29    29.93F
LIMON CO       SUNNY     75  23  14 S16G25    29.92F
$$

...UNOFFICIAL OBSERVATIONS...

CITY           SKY/WX    TMP DP  RH WIND       PRES   REMARKS
COLBY KS       SUNNY     73  46  38 S24G35    29.96F
LENORA KS        N/A     70  32  24 S24         N/A
LEOTI KS         N/A     73  32  22 S26         N/A
NORTON KS      SUNNY     72  39  30 S20G29    29.96F
SHARON SPRINGS   N/A     76  43  31 S25G32      N/A
WAKEENEY KS      N/A     73  39  28 MISG        N/A
KIT CARSON CO    N/A     77  35  21 MISG        N/A
WRAY CO        FAIR      81  34  18 S18G25    29.87
$$



USA.gov is the U.S. government's official web portal to all federal, state and local government web resources and services.